Other Surface Observations
Issued by NWS

Home | Current Version | Previous Version | Text Only | Print | Product List | Glossary On
Versions: 1 2 3 4 5 6 7 8 9 10 11 12 13 14 15 16 17 18 19 20 21 22 23 24 25 26 27 28 29 30 31 32 33 34 35 36 37 38 39 40 41 42 43 44 45 46 47 48 49 50
704
SXUS52 KTAE 201819
OSOTAE
OSOTAE
North Florida/South Alabama/Southwest Georgia Weather Roundup
National Weather Service Tallahassee Florida
200 PM EDT WED SEP 20 2017

Note: "fair" indicates few or no clouds below 12,000 feet with no
significant weather and/or obstructions to visibility.

!FLZ017-115-028-034-025-201900
...North Florida...

CITY           SKY/WX    TMP DP  RH WIND       PRES   REMARKS
TALLAHASSEE    PTSUNNY   89  74  60 N7        30.00F HX  98
APALACHICOLA   LGT RAIN  84  78  82 W9        30.02F HX  95
PERRY          MOSUNNY   90  71  53 CALM      30.01F HX  96
CROSS CITY     PTSUNNY   90  67  46 CALM      30.05F HX  93
JACKSONVILLE   PTSUNNY   91  67  44 VRB6      30.00F HX  94
$$

!FLZ112-006-005-002-011-201900
...Florida Panhandle...

CITY           SKY/WX    TMP DP  RH WIND       PRES   REMARKS
MARIANNA       SUNNY     88  73  61 VRB3      30.01F HX  95
BONIFAY        NOT AVBL
PANAMA CITY NW FAIR      89  71  55 S6        29.99F HX  95
TYNDALL AFB    SUNNY     88  74  63 W7        30.01F HX  97
TYND DRONE APT FAIR      86  76  71 SW5       30.01F HX  96
DE FUNIAK SPR  FAIR      87  71  57 CALM      30.02F THUNDER HX  93
EGLIN AFB      TSTM      79  72  78 NW5       30.02S
DESTIN         PTSUNNY   90  74  59 VRB5      30.01F HX  99
HURLBURT       TSTM      82  64  54 N17G23    30.01F
CRESTVIEW      CLOUDY    87  72  60 CALM      30.03F HX  93
PENSACOLA      PTSUNNY   89  73  59 SE10      30.01F HX  97
$$

!ALZ063-066-201900
...South Alabama...

CITY           SKY/WX    TMP DP  RH WIND       PRES   REMARKS
DOTHAN         MOSUNNY   87  74  64 NW6       30.06F HX  95
OZARK CAIRNS   PTSUNNY   86  73  66 NW6       30.01F HX  93
FT RUCKER HELI MOSUNNY   87  75  66 NW5       30.01F HX  96
RUCKER HELI 3  FAIR      86  74  68 N7        30.02F HX  93
RUCKER HELI 2  FAIR      86  74  66 N5        30.01F HX  93
FLORALA APT    NOT AVBL
ANDALUSIA      PTSUNNY   94  72  48 N6        30.01F HX 102
TROY           PTSUNNY   88  73  61 N6        30.04F HX  95
EUFALA         FAIR      88  74  63 VRB3      30.01F HX  96
MOBILE         PTSUNNY   87  73  62 W5        30.03F HX  94
$$

!GAZ120>161-201900
...Southwest and South Central Georgia...

CITY           SKY/WX    TMP DP  RH WIND       PRES   REMARKS
THOMASVILLE    PTSUNNY   86  73  66 NW3       30.03F HX  93
BAINBRIDGE     MOSUNNY   88  79  74 NW6       30.02F HX 102
MOODY AFB      CLOUDY    89  73  59 S6        30.00F HX  96
VALDOSTA       CLOUDY    84  73  69 CALM      30.01F HX  90
MOULTRIE       CLOUDY    84  72  65 W5        30.02F
BLAKELY        PTSUNNY   90  72  55 SW3       30.02F HX  96
ALBANY         MOSUNNY   91  73  55 VRB5      30.03F HX  99
TIFTON         PTSUNNY   87  72  61 W3        30.01F HX  93
FITZGERALD     MOCLDY    90  75  60 SW5       30.03F HX 100
CORDELE        FAIR      92  71  50 NW5       30.02F HX  98
AMERICUS       FAIR      90  66  45 CALM      30.03F HX  92
HOMERVILLE     PTSUNNY   88  70  55 SW3       30.01F HX  92
$$

!GMZ750-755-770-775-201900
...Coastal and Buoy Obs...

STATION/POSITION TIME  TEMP    WIND        PRES    VSBY  WAVE
                       AIR SEA DIR/SP/G                  HT/PER
                 (UTC) (F)     (DEG/KT/KT) (MB)    (MI)  (FT/S)
KEATON BEACH     1800   82     250/  7/  8 1016.1F
CEDAR KEY        1800   84     240/  4/  5 1016.6F
C TOWER          1800   83                 1017.1F
APALACHICOLA BUO 1750   82 83   40/  8/ 10 1016.4F         0
PANAMA CITY BUOY 1750   82 84   20/  8/ 10 1016.6F         0
MOBILE BUOY      1800   83 84  290/  2/  4 1017.0
ORANGE BCH AL BU 1750   82 84  260/  4/  6 1016.5F         1
$$




USA.gov is the U.S. government's official web portal to all federal, state and local government web resources and services.